DW1477 Lanjaron ES current weather conditions

sailwx.info

Wind from 266

Air temperature 22.2° C
Dewpoint 13.3° C

Last reported at 2019-Jul-20 00:30 UTC.
Time now 2019-Jul-20 01:37 UTC

Location: N 36°55' W 003°28'.
View on Google Maps.

See reports from other nearby stations

  
Tides and Currents Weather Stations Pressure Air Temp Water Temp Dewpoint Dewpoint Depression Visibility Wind Speed Wind Dir Waves Ship Positions
date/time (UTC)wind fromknots sea level pressurealtimeterstation pressurevisibilityair tempwater tempwave heightnotes
2019-Jul-20 00:30 266 22.2
2019-Jul-20 00:20 266 22.2
2019-Jul-19 23:50 266 21.7
2019-Jul-19 23:40 266 21.1
2019-Jul-19 22:40 266 21.7
2019-Jul-19 22:30 266 21.7
2019-Jul-19 21:20 266 21.7
2019-Jul-19 20:50 266 22.2
2019-Jul-19 20:40 266 22.2
2019-Jul-19 19:30 266 25.0
2019-Jul-19 19:10 266 26.1
2019-Jul-19 19:00 266 26.7
2019-Jul-19 17:40 266 28.9
2019-Jul-19 17:30 266 29.4
2019-Jul-19 17:20 266 0 gusting 2 29.4
2019-Jul-19 17:10 267 29.4
2019-Jul-19 16:50 267 0 gusting 2 29.4
2019-Jul-19 16:30 266 28.9
2019-Jul-19 13:04 276 0 gusting 4 27.8
2019-Jul-19 10:04 247 26.1
2019-Jul-19 08:04 232 24.4
2019-Jul-19 07:54 232 23.9
2019-Jul-19 06:24 232 18.3
2019-Jul-19 05:34 232 17.2
2019-Jul-19 05:24 232 17.2
2019-Jul-19 04:24 232 17.8
2019-Jul-19 03:54 232 18.3
2019-Jul-19 02:13 232 19.4
2019-Jul-19 01:44 232 20.0
2019-Jul-19 00:34 232 20.6
2019-Jul-19 00:24 232 20.6
2019-Jul-18 23:34 232 21.1
2019-Jul-18 23:13 232 21.1
2019-Jul-18 21:13 232 22.2
2019-Jul-18 20:14 232 23.9
2019-Jul-18 18:21 253 0 gusting 2 27.2
2019-Jul-18 16:13 288 1 gusting 5 28.9
2019-Jul-18 15:44 299 0 gusting 6 28.3
2019-Jul-18 12:14 280 1 gusting 5 26.7
2019-Jul-18 11:44 304 1 gusting 5 26.7
2019-Jul-18 11:14 271 1 gusting 4 26.7
2019-Jul-18 10:04 252 26.1
2019-Jul-18 09:44 250 26.1
2019-Jul-18 08:31 285 23.9
2019-Jul-18 06:14 285 17.8
2019-Jul-18 01:24 285 18.9